Location: Iesi
(43.5167°N, 13.2333°E)
Time: 16:46:47
(UTC+00:00)

Cosmos 1666 Rocket - Pass Details

Date: 08 August 2020
Orbit: 605 x 632 km, 82.5° (Epoch: 23 September)

Event Time Altitude Azimuth Distance (km) Brightness Sun altitude
Exits shadow 20:21:25 13° 203° (SSW) 1,747 5.6 -18.9°
Maximum altitude 20:25:08 57° 280° (W) 720 4.1 -19.4°
Drops below altitude 10° 20:29:25 10° 0° (N) 1,966 6.8 -19.9°
Sets 20:31:41 0° 5° (N) 2,878 7.6 -20.2°
